Location: Greenwich
(51.4790°N, 0.0090°E)
Time: 17:34:48
(UTC+01:00)

A-11 Canister half - Visible Passes

Search period start: 23 April 2024 00:00
Search period end: 03 May 2024 00:00
Orbit: 1525 x 1683 km, 47.3° (Epoch: 22 April)

Date Brightness Start Highest point End Pass type
(mag) Time Alt. Az. Time Alt. Az. Time Alt. Az.
23 Apr 10.7 04:31:46 10° S 04:38:43 22° SE 04:45:45 10° E visible
24 Apr 10.7 04:10:22 10° S 04:17:03 21° SE 04:23:49 10° E visible
25 Apr 10.7 03:48:59 10° S 03:55:24 20° SE 04:01:53 10° E visible
26 Apr 10.7 03:27:38 10° SSE 03:33:44 18° SE 03:39:55 10° E visible
27 Apr 10.7 03:06:19 10° SSE 03:12:05 17° SE 03:17:55 10° E visible
28 Apr 10.7 02:45:03 10° SSE 02:50:26 16° SE 02:55:54 10° E visible
28 Apr 9.8 04:44:17 10° SW 04:53:24 44° SSE 05:02:43 10° E visible
29 Apr 10.7 02:24:22 11° SSE 02:28:48 15° SE 02:33:49 10° E visible
29 Apr 9.8 04:22:39 10° SSW 04:31:40 42° SE 04:40:54 10° E visible
30 Apr 10.7 02:03:38 11° SSE 02:07:09 14° SE 02:11:41 10° E visible
30 Apr 9.8 04:01:55 13° SSW 04:09:58 41° SE 04:19:06 10° E visible
01 May 10.7 01:42:51 12° SE 01:45:31 13° ESE 01:49:29 10° E visible
01 May 9.8 03:41:07 16° SSW 03:48:15 39° SE 03:57:18 10° E visible
02 May 10.7 01:22:01 11° SE 01:23:54 12° ESE 01:27:10 10° ESE visible
02 May 9.8 03:20:18 19° SSW 03:26:33 38° SE 03:35:28 10° E visible
